#timestamp,LO_Frequency,Hit,StdDev 
1625486415.2,286046998.5,N
1625486435.1,286046998.8,N
1625486436.0,286046998.8,N
1625486455.8,286046998.6,N
1625486475.7,286047001.1,N
1625486495.5,286047002.8,N
1625486515.3,286047000.5,N
1625486535.2,286047001.0,N
1625486555.0,286046998.2,N
1625486555.9,286046998.2,N
1625486575.8,286046998.9,N
1625486595.6,286046999.1,N
1625486615.4,286046999.2,N
1625486635.3,286046998.3,N
1625486655.1,286046998.6,N
1625486705.9,286047000.9,E
1625486715.8,286046998.7,N
1625486735.6,286046999.2,P
1625486755.5,286046996.6,P
1625486775.3,286046996.8,N
1625486795.1,286046996.9,N
1625486815.9,286046996.6,Y
1625486835.7,286046999.9,P
1625486855.6,286047000.0,N
1625486875.4,286047000.0,N
1625486895.2,286046999.9,N
1625486915.1,286047000.4,N
1625486916.0,286047000.4,N
1625486935.8,286046998.7,N
1625486955.7,286046998.1,N
1625486975.5,286046998.5,N
1625486995.3,286046998.2,N
1625487015.2,286047002.7,N
1625487035.0,286047002.6,N
1625487035.9,286047002.6,N
1625487055.8,286047001.8,N
1625487075.6,286047000.2,N
1625487095.4,286047002.3,N
1625487115.3,286047000.5,N
1625487135.1,286046999.9,N
1625487155.8,286047000.1,N
1625487175.7,286046999.9,N
1625487195.5,286047000.8,N
1625487215.4,286047000.4,N
1625487235.2,286047000.8,N
1625487255.0,286046999.4,N
1625487255.9,286046999.4,N
1625487275.8,286046999.6,N
1625487295.6,286046998.4,N
1625487315.4,286046999.1,N
1625487335.3,286046998.7,N
1625487355.1,286046998.3,N
1625487375.9,286046998.6,N
1625487395.7,286046998.4,N
1625487415.5,286047001.0,N
1625487435.4,286047000.3,N
1625487455.2,286047002.0,N
1625487475.0,286047004.0,N
1625487475.9,286047004.0,N
1625487495.8,286047003.6,N
1625487515.6,286047004.4,N
1625487535.5,286047002.2,N
1625487555.3,286047002.1,N
1625487575.1,286047002.7,N
1625487595.9,286046999.7,N
1625487615.7,286046999.9,N
1625487635.5,286047000.8,N
1625487655.4,286047000.9,N
1625487675.2,286046999.9,N
1625487695.1,286047000.6,N
1625487696.0,286047000.6,N
1625487715.8,286047001.2,N
1625487735.6,286047001.0,N
1625487755.5,286047001.1,N
1625487775.3,286046998.4,N
1625487795.1,286046998.4,N
1625487815.9,286046999.3,N
1625487835.7,286046998.2,N
1625487855.6,286046998.6,N
1625487875.4,286047001.1,N
1625487895.2,286046999.3,N
1625487915.1,286046998.7,N
1625487916.0,286046998.7,N
1625487935.8,286046998.2,N
1625487955.7,286046998.1,N
1625487975.5,286047000.3,N
1625487995.3,286047000.3,N
1625488015.2,286047000.4,N
1625488035.9,286047000.6,N
1625488055.7,286046998.7,N
1625488075.6,286047001.1,N
1625488095.4,286047000.0,N
1625488145.3,286047002.0,E
1625488155.2,286047000.0,N
1625488175.0,286046999.0,P
1625488175.9,286046999.0,N
1625488195.8,286047000.7,N
1625488215.6,286047000.3,N
1625488235.5,286046998.4,N
1625488255.3,286046999.6,N
1625488275.1,286046998.7,N
1625488295.9,286046998.8,N
1625488315.7,286046998.3,N
1625488335.5,286047011.9,Y
1625488355.4,286047001.0,P
1625488375.2,286047001.2,N
1625488395.1,286047000.4,N
1625488396.0,286047000.4,N
1625488415.8,286047000.0,N
1625488435.6,286046999.8,N
1625488455.5,286047000.6,N
1625488475.3,286046999.7,N
1625488495.1,286047002.1,Y
1625488515.9,286047001.5,P
1625488535.7,286047004.3,P
1625488555.6,286047001.9,N
1625488575.4,286047002.8,N
1625488595.2,286046999.7,N
1625488615.1,286047001.9,N
1625488616.0,286047001.9,N
1625488635.8,286047001.9,N
1625488655.6,286047001.6,N
1625488675.5,286047004.4,Y
1625488695.3,286046999.7,P
1625488715.2,286047002.7,N
1625488735.9,286046999.8,N
1625488755.7,286047002.2,N
1625488775.6,286047001.6,N
1625488795.4,286047002.6,N
1625488815.2,286047002.5,N
1625488835.1,286047001.7,N
1625488836.0,286047001.7,N
1625488855.8,286047001.3,N
1625488875.7,286047002.1,N
1625488895.5,286047002.7,N
1625488915.3,286047002.7,N
1625488935.2,286047002.4,N
1625488955.0,286047002.7,N
1625488955.9,286047002.7,N
1625488975.7,286046999.9,N
1625488995.6,286046998.1,N
1625489015.4,286046999.2,N
1625489035.3,286046999.3,N
1625489055.1,286046998.4,N
1625489056.0,286046998.4,N
1625489075.8,286046999.0,N
1625489095.7,286047001.2,N
1625489115.5,286046998.4,N
1625489135.3,286046998.3,N
1625489155.2,286047002.5,N
1625489175.0,286047000.8,N
1625489175.9,286047000.8,N
1625489195.8,286047000.2,N
1625489215.6,286047001.2,N
1625489235.4,286047000.4,N
1625489255.3,286046999.4,N
1625489275.1,286046997.3,N
1625489295.8,286046996.7,N
1625489315.7,286046997.2,N
1625489335.5,286046997.7,N
1625489355.4,286046997.6,N
1625489375.2,286046995.1,N
1625489395.0,286046997.8,N
1625489395.9,286046997.8,N
1625489415.8,286046998.0,N
1625489435.6,286046995.1,N
1625489455.4,286046995.3,N
1625489475.3,286046997.5,N
1625489495.1,286046998.9,N
1625489515.9,286046998.5,N
1625489535.7,286047000.7,N
1625489555.5,286046996.5,N
1625489575.4,286046997.3,N
1625489595.2,286046995.4,N
1625489615.0,286046995.1,N
1625489615.9,286046995.1,N
1625489635.8,286046995.6,N
1625489655.6,286046995.0,N
1625489675.5,286046996.9,N
1625489695.3,286046997.9,N
1625489715.1,286046997.7,N
1625489735.9,286046999.3,N
1625489755.7,286046996.5,N
1625489775.6,286046996.7,N
1625489795.4,286046997.2,N
1625489815.2,286046995.3,Y
1625489835.1,286046996.8,P
1625489836.0,286046996.8,P
1625489855.8,286046999.4,P
1625489875.7,286046996.7,Y
1625489895.5,286046999.9,P
1625489915.3,286047000.2,N
1625489935.2,286046999.7,N
1625489955.0,286047000.0,N
1625489955.9,286047000.0,N
1625489975.8,286047000.6,N
1625489995.6,286047000.6,N
